Regional Weather Roundup
Issued by NWS Glasgow, MT

Home | Current Version | Previous Version | Text Only | Print | Product List | Glossary On
Versions: 1 2 3 4 5 6 7 8 9 10 11 12 13 14 15 16 17 18 19 20 21 22 23 24 25 26 27
000
ASUS45 KGGW 040915
RWRGGW
HOURLY REGIONAL WEATHER ROUNDUP FOR NORTHEAST MONTANA
NATIONAL WEATHER SERVICE GLASGOW MONTANA
200 AM MST SUN DEC 04 2016

NOTE: "FAIR" INDICATES FEW OR NO CLOUDS BELOW 12,000 FEET WITH NO
SIGNIFICANT WEATHER AND/OR OBSTRUCTIONS TO VISISBILITY.

NORTHEAST MONTANA


CITY           SKY/WX    TMP DP  RH WIND       PRES   REMARKS
GLASGOW        CLEAR     23  20  88 W14       29.82S
PLENTYWOOD       N/A     30  30 100 NW8         N/A
WOLF POINT     CLEAR     25  22  88 SW8       29.83S
JORDAN           N/A     21  16  81 NW7       29.85F
SIDNEY         PTCLDY    30  25  81 W15       29.81R
GLENDIVE       CLEAR     28  22  78 W16       29.83S
SCOBEY           N/A     22  15  75 CALM      29.77S

FORT PECK REPORTS


CITY           SKY/WX    TMP DP  RH WIND       PRES   REMARKS
FORT PECK        N/A     29  24  82 W10         N/A
THE PINES        N/A     32  20  61 SW2         N/A

SOUTHEAST MONTANA


CITY           SKY/WX    TMP DP  RH WIND       PRES   REMARKS
BILLINGS       CLOUDY    29  16  58 SW12      29.90F
MILES CITY     CLEAR     25  17  72 NW7       29.88S
BAKER          PTCLDY    24  17  74 W8        29.84F
LIVINGSTON     CLOUDY    33  15  47 SW16G26   29.93S

CENTRAL MONTANA


CITY           SKY/WX    TMP DP  RH WIND       PRES   REMARKS
HAVRE          PTCLDY    31  21  66 SW13      29.81F
LEWISTOWN      CLEAR     29  19  66 SW16      29.83F
GREAT FALLS    CLOUDY    33  21  61 SW18      29.83F
CUT BANK       PTCLDY    29  22  75 W15       29.76F
HELENA         CLOUDY    37  17  44 VRB3      29.92F
BUTTE          CLOUDY    29  14  53 SW7       29.94F
BOZEMAN        CLOUDY    34  16  47 SW10      29.96F

WESTERN MONTANA


CITY           SKY/WX    TMP DP  RH WIND       PRES   REMARKS
MISSOULA       CLOUDY    31  31 100 CALM      29.97F FOG
KALISPELL      NOT AVBL

NORTH DAKOTA


CITY           SKY/WX    TMP DP  RH WIND       PRES   REMARKS
WILLISTON      LGT SNOW  33  30  88 W9        29.78R FOG
DICKINSON      PTCLDY    24  21  88 W10       29.77R
MINOT          CLOUDY    30  26  85 W13       29.71S
BISMARCK       MOCLDY    34  30  85 W13       29.76F

SOUTHERN SASKATCHEWAN


CITY           SKY/WX    TMP DP  RH WIND       PRES   REMARKS
REGINA         CLOUDY    25  25 100 W10       29.73S
ESTEVAN        NOT AVBL
SWIFT CURRENT  PTCLDY    19  16  86 SW13      29.70F





USA.gov is the U.S. government's official web portal to all federal, state and local government web resources and services.